RADUGA 14

Satellite information

Favourite Embed

Satellite Type and Status

PAYLOADIN ORBIT

Key statistics

Satellite RADUGA 14 at a glance.

Uptime

15181

Days in orbit

Revolutions

≈ 1.0

Per day

Orbit

OTHER

Other

Inclination

9.1

Latest

Satellite identification and parameters

Extended collection of information and parameters for RADUGA 14.

Object identification

Identified? True

Debris? False

Object name: RADUGA 14

International designator: 1984-016A

Object number (NORAD): 14725

Object ID (CCSDS): 14725

Country: COMMONWEALTH OF INDEPENDENT STATES (CIS)

Current information (Y/N): Y

RCS size: MEDIUM

Orbital parameters

Period: 1436.192 minutes

Inclination: 9.12 deg

SMA: 42166.59 km

Apoapsis: 35801.847 km

Periapsis: 35775.063 km

RAAN: 312.6329 deg

Eccentricy: 0.00031759

Argument of periapsis: 191.8977 deg

Mean anomaly: 172.5908 deg

Mean motion: 1.00265159 rev/day

Mean motion (dot): 0.00000004 rev/day2

B* drag term: 0.0 1/REarth

Two-line elements (TLE)

Creation date: Sept. 8, 2025, 3:16 a.m.

Reference frame: TEME

Reference center: EARTH

Epoch: Sept. 7, 2025, 5:45 p.m. UTC

TLE line 0: 0 RADUGA 14

TLE line 1: 1 14725U 84016A 25250.73967406 .00000004 00000-0 00000-0 0 9998

TLE line 2: 2 14725 9.1200 312.6329 0003176 191.8977 172.5908 1.00265159115275

Live tracking on map

Real-time ground track for satellite RADUGA 14.

In-orbit conjunctions

A list of the most updated potential collisions computed for object RADUGA 14.

Target Orbit TCA Probability of collision Miss distance Type
RADUGA 5 OTHER 2025-08-12 21:31:07 TBA 4141.0 (m) PAYLOAD
SL-12 R/B(2) OTHER 2024-11-19 08:23:51 TBA 1897.0 (m) ROCKET BODY
MOLNIYA 1-S GEO 2024-09-15 04:39:04 TBA 4232.0 (m) PAYLOAD

Associated space launch

Geostationary communications satellite for military and governmental puposes

RADUGA 14 was lifted into orbit during the mission ‘Proton-K/DM | Raduga 14’, on board a Proton-K/DM space rocket.

The launch took place on Feb. 15, 1984, 8:46 a.m. from 200/39 (200L).

For more information about the launch, click the button.

Launch to space Proton-K/DM | Raduga 14
Proton-K/DM | Raduga 14

Agency: N/A

Status: Launch Successful

Launch date: Feb. 15, 1984, 8:46 a.m. UTC

Rocket: Proton-K/DM

Launch pad: 200/39 (200L)

Location: Baikonur Cosmodrome, Republic of Kazakhstan

...

Latest news about this satellite

There are no fresh news available about this satellite. Check back as we update our databases every day.


Newsletter sign-up

Weekly statistics, charts and insights to help you stay on top of the space industry.